Tracking 18980 objects as of 18-Feb-2018
HD Live streaming from Space Station
objects crossing your sky now

COSMOS 1622

Track COSMOS 1622 now!
10-day predictions
COSMOS 1622 is classified as:


NORAD ID: 15474
Int'l Code: 1985-003F
Perigee: 1,408.2 km
Apogee: 1,420.7 km
Inclination: 82.6 °
Period: 113.9 minutes
Semi major axis: 7785 km
RCS: 0.137 m2 (medium)
Launch date: January 15, 1985
Source: Commonwealth of Independent States (former USSR) (CIS)
Launch site: PLESETSK MISSILE AND SPACE COMPLEX (PKMTR)
aabbcc
Your satellite tracking list
Your tracking list is empty




NASA's NSSDC Master Catalog

Two Line Element Set (TLE):
1 15474U 85003F   18048.93749698 -.00000003 +00000-0 -76989-4 0  9991
2 15474 082.6058 222.8391 0008074 245.9612 227.7772 12.63793897526425
Source of the keplerian elements: AFSPC